TimeMST,TemperatureF,Dew PointF,Humidity,Sea Level PressureIn,VisibilityMPH,Wind Direction,Wind SpeedMPH,Gust SpeedMPH,PrecipitationIn,Events,Conditions,WindDirDegrees,DateUTC
12:53 AM,3.0,-2.9,76,30.47,10.0,NE,4.6,-,N/A,,Clear,50,2013-01-18 07:53:00
1:53 AM,5.0,-0.0,80,30.45,10.0,NNW,3.5,-,N/A,,Clear,340,2013-01-18 08:53:00
2:53 AM,3.9,-0.9,80,30.43,10.0,NE,6.9,-,N/A,,Clear,50,2013-01-18 09:53:00
3:53 AM,6.1,1.0,80,30.39,10.0,ENE,3.5,-,N/A,,Clear,60,2013-01-18 10:53:00
4:53 AM,1.9,-2.9,80,30.41,10.0,NW,3.5,-,N/A,,Clear,320,2013-01-18 11:53:00
5:53 AM,3.0,-2.9,76,30.42,10.0,NNW,3.5,-,N/A,,Clear,330,2013-01-18 12:53:00
6:53 AM,3.9,-2.0,76,30.42,10.0,WSW,6.9,-,N/A,,Clear,240,2013-01-18 13:53:00
7:53 AM,3.9,-2.0,76,30.42,10.0,SE,6.9,-,N/A,,Clear,130,2013-01-18 14:53:00
8:53 AM,10.9,3.9,73,30.39,10.0,WSW,8.1,-,N/A,,Clear,240,2013-01-18 15:53:00
9:53 AM,19.9,9.0,62,30.36,10.0,South,5.8,-,N/A,,Clear,180,2013-01-18 16:53:00
10:53 AM,10.0,1.9,70,30.39,10.0,Calm,Calm,-,N/A,,Clear,0,2013-01-18 17:53:00
11:53 AM,16.0,7.0,68,30.35,10.0,East,6.9,-,N/A,,Clear,80,2013-01-18 18:53:00
12:53 PM,23.0,10.9,60,30.30,10.0,Variable,4.6,-,N/A,,Clear,0,2013-01-18 19:53:00
1:53 PM,24.1,12.9,62,30.27,10.0,Calm,Calm,-,N/A,,Clear,0,2013-01-18 20:53:00
2:53 PM,23.0,12.9,65,30.26,10.0,Variable,3.5,-,N/A,,Clear,0,2013-01-18 21:53:00
3:53 PM,27.0,12.9,56,30.23,10.0,South,3.5,-,N/A,,Clear,180,2013-01-18 22:53:00
4:53 PM,30.9,10.9,43,30.24,10.0,South,6.9,23.0,N/A,,Clear,190,2013-01-18 23:53:00
5:53 PM,46.9,7.0,20,30.14,10.0,West,10.4,19.6,N/A,,Clear,280,2013-01-19 00:53:00
6:24 PM,46.4,6.8,20,30.05,10.0,West,10.4,47.2,N/A,,Squalls,280,2013-01-19 01:24:00
6:39 PM,46.4,6.8,20,30.04,10.0,WNW,8.1,57.5,N/A,,Squalls,300,2013-01-19 01:39:00
6:53 PM,42.1,9.0,26,30.16,10.0,West,8.1,-,N/A,,Clear,280,2013-01-19 01:53:00
7:53 PM,39.9,14.0,35,30.18,10.0,West,27.6,41.4,N/A,,Clear,280,2013-01-19 02:53:00
8:53 PM,37.0,14.0,39,30.15,10.0,West,27.6,35.7,N/A,,Clear,260,2013-01-19 03:53:00
9:53 PM,37.9,14.0,38,30.15,10.0,WNW,26.5,-,N/A,,Clear,290,2013-01-19 04:53:00
10:53 PM,41.0,10.9,29,30.17,10.0,WNW,29.9,38.0,N/A,,Clear,300,2013-01-19 05:53:00
11:53 PM,39.0,10.0,30,30.18,10.0,WNW,23.0,34.5,N/A,,Clear,290,2013-01-19 06:53:00